Temperature
21 20 20 20 19 19 20 21 22 22 21 21 21 21 20 19 19 19 19 19 19 19 18 18 19 19 19 19 19 19 19 19 19 18 18 18 18 18 18 18 18 18 18 18 18 18 18 18 18
21 20 20 20 19 20 21 22 22 22 21 21 21 21 20 19 19 19 19 19 19 19 18 18 19 19 19 19 19 19 19 19 19 19 19 18 18 18 18 18 18 18 18 18 18 18 18 18 18
21 20 20 19 20 20 22 22 22 22 22 22 21 21 20 19 19 19 19 19 19 19 19 18 19 19 19 19 19 19 19 19 19 19 18 18 18 18 18 18 18 18 18 18 18 18 18 18 18
21 20 20 20 21 22 22 22 22 22 22 22 21 20 20 19 20 19 19 19 19 19 19 19 19 19 19 19 19 19 19 19 19 19 18 18 18 18 18 18 18 18 18 18 18 18 18 18 18
21 21 20 20 22 23 23 23 23 22 22 21 21 20 19 19 20 19 19 19 19 19 19 19 19 19 19 19 19 19 19 19 19 19 19 19 19 19 19 19 18 18 18 18 18 18 18 18 18
21 20 20 21 22 23 23 23 22 22 21 21 20 19 19 19 20 19 19 19 19 19 19 19 19 19 19 19 19 19 19 19 19 19 19 19 18 19 19 18 18 18 18 18 18 18 18 18 18
21 20 21 22 22 23 23 23 22 22 21 21 21 19 19 19 19 19 19 19 19 19 19 19 19 18 18 18 18 18 18 18 19 19 18 18 18 18 18 18 18 18 18 18 18 18 18 18 18
22 20 21 22 22 23 23 23 23 22 22 22 21 20 19 19 19 19 19 19 19 19 19 19 19 18 18 18 18 18 18 18 18 18 18 18 18 18 18 18 18 18 18 18 18 18 18 18 18
23 20 21 22 23 23 23 23 23 23 22 22 21 21 21 20 20 19 19 19 19 19 19 19 19 19 18 18 18 18 18 18 18 18 18 18 18 18 18 18 18 18 18 18 18 18 18 18 17
22 20 22 23 23 23 23 23 23 22 22 21 21 21 20 20 20 20 19 19 19 19 19 19 19 19 19 18 18 18 18 18 18 18 18 18 18 18 18 18 18 18 18 18 18 18 18 18 17
22 22 23 24 25 24 24 23 23 22 21 21 21 20 20 20 20 20 19 19 19 19 19 19 19 19 19 19 18 18 18 18 18 18 18 18 18 18 18 18 18 18 18 18 18 18 18 18 18
23 23 24 24 25 25 24 23 23 22 22 22 22 21 20 20 20 20 20 19 19 19 19 19 19 19 19 19 18 18 18 18 18 18 18 18 18 18 18 18 18 18 18 18 18 18 18 17 17
24 24 25 25 25 25 24 23 23 23 23 22 21 21 21 20 20 20 20 20 20 19 19 19 19 19 19 19 19 18 18 18 18 18 18 18 18 18 18 18 18 18 18 18 18 18 18 18 18
24 24 24 25 25 25 24 23 23 22 22 22 21 21 21 21 20 20 20 20 20 20 19 19 19 19 19 19 19 19 18 18 18 18 18 18 18 18 18 18 18 18 18 18 18 18 18 17 17
25 24 24 24 24 24 24 23 23 22 22 21 21 21 21 21 20 20 20 20 20 20 20 19 19 19 19 19 19 19 18 18 18 18 18 18 18 18 18 18 18 18 18 18 18 18 18 17 17
24 23 23 24 24 24 24 22 22 22 22 21 21 21 21 21 21 21 20 20 20 20 20 19 19 19 19 19 19 19 19 19 18 18 18 18 18 18 18 18 18 18 18 18 17 17 17 17 17
23 23 24 24 24 24 23 22 22 22 22 21 21 21 21 21 21 21 20 20 20 20 20 20 19 19 19 19 19 19 19 19 19 18 18 18 18 18 18 18 18 18 18 18 18 17 17 17 17
23 23 24 24 24 23 23 22 22 22 22 21 21 21 21 21 21 21 21 21 20 20 20 20 19 19 19 19 19 19 19 19 18 18 18 18 18 18 18 18 18 18 18 18 18 18 17 17 17
24 24 24 24 24 23 23 22 22 22 21 21 21 21 21 21 21 21 21 21 20 20 20 20 20 19 19 19 19 19 19 19 18 18 18 18 18 18 18 18 18 18 18 18 18 18 17 17 17
24 24 24 24 24 24 22 22 22 21 21 22 21 21 21 21 21 21 21 21 20 20 20 20 20 20 19 19 19 19 19 19 18 18 18 18 18 18 18 18 18 18 18 18 18 18 17 17 17
24 24 24 24 24 23 23 23 22 21 22 22 22 22 21 22 22 21 21 21 21 20 20 20 20 20 19 19 19 19 19 19 18 18 18 18 18 18 18 18 18 18 18 18 18 18 18 18 17
24 24 24 24 23 22 23 21 22 21 21 21 21 22 21 22 22 22 21 21 21 21 20 20 20 20 20 19 19 19 19 19 19 19 18 18 18 18 18 18 18 18 18 18 18 18 18 17 17
24 24 24 24 22 21 22 21 21 20 21 21 21 22 22 22 22 22 22 22 21 21 21 21 20 20 20 20 19 19 19 19 19 19 19 18 18 18 18 18 18 18 18 18 18 18 18 17 17
25 23 22 20 20 21 21 21 21 20 21 21 21 22 22 22 22 22 22 22 22 21 21 21 20 20 20 20 19 19 19 19 19 19 19 18 18 18 18 18 18 18 18 18 18 17 17 17 17
24 22 21 21 20 20 21 21 21 22 21 22 22 22 22 22 22 22 22 22 22 21 21 21 21 20 20 20 20 19 19 19 19 19 19 18 18 18 18 18 18 18 17 17 17 17 17 17 17
23 22 21 22 21 20 21 21 22 22 22 23 23 23 23 23 22 22 22 22 22 22 22 21 21 21 20 20 20 20 19 19 19 19 18 18 18 18 18 18 18 18 17 17 17 17 17 17 17
23 21 21 19 20 21 20 20 21 22 21 22 22 22 22 23 23 23 23 23 22 22 22 21 21 21 20 20 20 20 19 19 19 19 18 18 18 18 18 18 18 18 17 17 17 17 17 17 17
22 20 18 19 20 21 21 21 21 22 21 21 20 21 22 22 23 23 23 23 23 22 22 22 21 21 21 20 20 20 19 19 19 19 18 18 18 18 18 18 18 17 17 17 17 17 17 17 16
22 21 18 17 19 20 21 21 22 21 21 20 20 21 22 23 23 23 23 23 23 23 22 22 21 21 21 20 20 20 20 19 19 19 18 18 18 18 18 18 17 17 17 17 17 17 17 16 16
22 21 19 20 19 18 19 21 22 21 20 20 21 22 22 23 23 23 23 23 23 23 22 22 22 21 21 21 20 20 19 19 19 19 18 18 18 18 18 17 17 17 17 17 17 17 16 16 16
Wind_Speed
9 7 3 1 3 5 2 2 1 2 3 3 5 6 6 4 2 2 0 1 3 2 3 4 6 7 8 9 10 10 11 11 12 13 14 15 15 16 16 16 16 16 16 16 16 16 16 16 16
7 5 1 2 4 3 2 1 2 2 4 4 5 5 6 4 3 4 1 2 3 3 3 5 7 8 9 9 10 10 11 11 12 13 14 14 15 15 15 15 16 16 16 16 16 16 15 15 15
6 3 1 3 3 2 2 2 4 5 5 3 4 5 4 3 3 2 2 4 4 3 3 4 7 8 9 10 10 11 11 11 12 13 13 14 14 14 14 14 15 15 15 15 15 15 15 14 14
3 0 2 4 3 1 3 3 5 6 3 4 4 5 4 3 3 4 6 5 5 3 3 4 7 8 10 11 11 11 11 11 11 12 13 13 13 13 13 13 13 14 14 15 15 14 14 13 12
1 2 5 4 3 2 2 4 4 4 2 4 5 5 3 3 6 8 6 5 4 3 3 4 7 8 9 10 10 10 10 10 11 11 12 12 12 12 12 12 13 13 13 14 14 13 12 11 11
2 3 4 2 2 2 3 3 4 5 4 4 5 4 2 3 6 6 6 5 4 3 3 4 6 7 8 9 9 9 10 10 10 11 11 11 11 10 11 11 11 12 12 13 13 12 11 11 10
3 4 2 1 1 1 2 3 3 4 4 3 4 5 2 3 5 6 6 5 4 4 4 4 4 5 6 7 8 9 9 9 10 10 10 10 9 9 9 9 9 10 11 11 11 11 10 9 9
3 3 2 0 2 1 3 3 3 5 4 4 4 6 4 5 6 7 6 5 4 3 3 3 4 5 5 5 7 8 9 9 9 9 9 9 8 8 7 7 8 9 10 10 10 10 9 8 8
3 4 1 3 4 2 4 3 2 4 5 3 3 4 6 11 9 8 6 4 3 3 2 2 2 3 4 4 5 6 7 7 7 7 8 7 6 5 5 6 8 8 8 8 8 8 8 7 6
3 2 4 3 4 5 4 4 5 4 4 3 5 7 11 11 9 9 7 5 3 2 1 2 2 2 2 3 4 4 5 5 5 6 6 6 5 4 4 6 7 7 6 6 6 6 5 5 4
4 4 2 1 3 6 5 4 4 7 3 5 9 12 12 10 9 9 7 5 4 3 2 2 2 2 2 2 3 3 3 3 4 4 4 4 4 3 3 3 3 4 4 4 4 4 3 3 3
3 2 2 1 3 4 5 5 4 4 4 7 12 14 12 11 9 9 8 6 4 3 2 2 2 2 2 3 2 2 2 2 1 2 2 3 2 2 2 2 2 2 2 3 3 2 2 3 3
1 0 1 3 4 4 6 5 4 2 6 10 12 12 11 10 8 7 7 6 5 4 3 2 3 3 2 2 1 2 2 1 1 1 2 3 2 1 1 1 2 2 2 2 2 2 2 2 2
1 2 3 3 4 3 6 3 4 3 9 11 11 10 10 10 9 7 7 6 6 5 4 3 3 3 3 3 2 1 2 2 2 1 1 2 2 2 1 1 1 1 1 2 2 2 2 2 2
3 4 5 3 3 2 6 3 1 5 10 11 10 9 9 8 8 9 8 8 7 6 4 4 4 3 3 3 2 2 2 2 1 1 1 2 2 3 2 1 1 1 2 2 2 3 2 2 1
4 4 1 2 1 3 6 2 3 7 10 10 9 9 9 8 8 8 8 7 6 5 5 4 4 4 3 3 2 1 2 2 1 1 1 1 2 3 3 2 1 1 2 2 2 2 2 1 1
4 1 2 2 3 4 4 3 4 8 10 10 10 9 9 8 7 7 8 8 7 6 6 5 4 4 4 3 2 2 2 1 1 1 1 1 2 3 3 2 1 2 2 2 2 2 2 1 1
3 2 2 3 3 4 3 4 4 8 9 10 9 9 9 10 10 8 8 7 7 6 6 5 4 4 4 3 2 2 1 0 0 1 1 2 2 3 3 2 2 3 2 1 1 2 2 1 1
5 3 3 4 2 4 4 4 5 8 8 9 9 9 10 11 8 7 7 7 6 5 5 5 5 4 4 2 2 2 1 1 0 1 1 2 2 3 3 3 2 3 2 2 2 2 2 1 2
4 3 3 3 0 3 2 4 4 8 11 11 12 11 12 9 7 8 7 7 7 7 6 6 5 5 5 4 3 2 2 1 1 0 0 1 2 3 3 3 3 2 2 2 2 3 2 1 1
4 6 5 3 1 3 2 4 3 4 6 7 8 9 10 13 12 10 9 8 8 8 8 7 6 5 5 4 3 2 2 2 1 1 0 0 1 2 3 3 3 3 3 3 3 3 3 2 1
5 5 6 4 3 2 1 3 6 4 5 8 9 9 10 11 11 11 10 9 9 9 8 7 6 6 5 5 5 4 3 2 2 2 1 0 1 2 3 3 4 3 3 3 3 3 3 3 2
5 2 3 3 4 1 1 2 7 1 5 10 12 12 11 10 12 12 12 11 10 8 8 7 6 6 5 6 6 5 4 3 2 1 1 1 0 1 2 3 3 3 3 3 2 2 3 3 3
5 7 7 6 5 1 3 4 7 5 8 8 10 12 11 11 11 11 10 9 8 8 7 7 7 7 6 7 7 6 6 5 3 2 2 1 0 0 0 2 2 2 2 3 3 3 3 3 3
6 7 4 4 3 5 3 3 8 8 7 9 10 12 12 11 10 10 10 10 10 10 9 8 9 8 7 7 7 7 7 7 6 4 4 3 1 1 2 2 2 2 2 3 3 3 3 3 3
5 9 8 5 5 5 1 5 7 6 6 5 6 7 9 10 10 11 11 11 11 11 10 9 10 9 7 8 7 6 6 5 4 5 4 4 3 3 2 2 2 2 2 3 3 3 3 2 2
6 4 7 7 2 1 5 6 8 3 3 0 3 5 7 10 11 11 10 10 10 10 10 10 10 8 8 8 7 6 6 6 5 4 4 3 3 3 2 2 2 2 2 2 2 2 2 2 2
5 9 6 6 5 3 5 5 5 6 4 2 2 4 6 7 8 9 9 10 10 10 9 9 9 9 8 8 7 6 6 6 5 4 5 4 3 3 3 3 3 2 3 2 2 2 2 2 2
4 5 5 5 6 6 4 7 6 8 6 5 5 5 6 7 9 9 9 9 8 8 8 8 8 7 7 7 7 6 6 5 5 5 5 4 3 3 3 3 3 3 3 3 3 3 3 2 2
5 7 8 6 4 5 5 7 5 5 4 4 4 4 4 5 7 7 8 8 8 8 8 9 8 8 7 7 6 6 5 5 5 5 4 4 3 3 3 3 3 3 3 3 4 3 3 3 2
Wind_Direction
152 142 144 133 57 49 22 343 57 65 55 51 64 76 82 69 85 128 296 103 106 89 99 114 110 109 109 110 111 109 109 110 113 118 120 122 123 124 125 127 127 128 128 129 130 127 127 127 126
148 153 176 61 73 59 344 338 90 96 135 125 74 73 72 63 70 104 82 107 105 98 89 104 108 107 110 113 112 109 108 109 110 116 120 122 122 122 124 128 129 129 130 131 129 128 127 128 128
162 188 97 66 77 144 175 152 124 111 123 101 73 60 74 91 109 130 145 125 100 79 83 101 101 101 106 112 111 108 108 108 110 115 121 122 123 123 126 128 131 132 133 134 131 129 128 128 129
161 127 60 61 44 234 171 158 137 121 87 64 91 69 63 56 124 133 129 120 101 72 85 101 94 98 105 109 107 106 106 109 113 117 121 123 123 126 126 127 131 134 133 133 132 131 130 131 132
113 79 52 36 5 13 113 139 129 112 98 73 89 88 49 28 98 113 115 114 107 80 80 94 96 98 104 105 103 103 108 111 115 119 122 125 128 129 128 130 132 135 134 133 134 134 132 131 133
55 61 62 34 25 45 85 107 108 95 98 94 91 95 54 95 110 117 111 106 101 89 73 83 98 101 101 106 106 105 108 113 115 116 119 123 128 130 130 132 135 138 140 138 137 136 136 134 135
89 74 88 110 83 86 135 112 110 116 113 116 115 99 89 119 122 115 108 102 91 80 62 55 76 93 98 102 105 107 106 108 112 113 117 122 125 127 130 134 136 138 141 140 140 139 140 137 135
128 92 56 72 146 171 141 108 115 122 115 121 114 130 165 166 131 109 99 91 88 78 62 50 58 72 78 89 103 106 107 108 110 112 111 112 114 117 124 130 138 141 139 140 143 144 142 140 138
111 70 165 195 172 175 149 129 128 97 111 107 98 135 146 134 124 114 102 87 90 96 65 61 60 73 82 86 98 101 103 101 102 102 100 95 93 95 104 117 130 138 138 141 145 147 145 142 137
98 127 222 205 174 159 157 145 145 114 107 90 86 96 121 130 135 135 137 140 143 140 112 79 81 86 98 100 86 80 82 81 83 85 87 88 88 86 89 98 118 126 131 136 137 138 140 129 124
144 180 234 223 155 145 145 138 128 129 156 175 151 143 143 142 146 148 154 158 166 158 142 115 115 109 104 97 94 87 91 88 84 89 95 99 93 85 78 83 91 98 103 98 102 95 106 114 121
147 227 198 146 108 129 142 130 120 155 192 158 149 148 148 155 162 163 164 165 159 152 163 149 135 120 114 116 108 110 111 107 105 112 126 122 109 86 78 78 80 82 95 93 85 86 103 114 125
121 27 79 107 97 111 111 119 126 137 124 128 136 144 154 162 165 166 165 161 157 161 175 171 151 147 140 128 142 129 130 134 148 153 161 152 140 123 108 91 87 89 103 99 92 92 105 107 101
143 76 52 77 91 95 111 98 104 144 136 137 146 156 166 170 166 163 165 167 168 171 175 163 156 158 145 144 152 156 160 169 161 168 178 170 167 162 148 131 116 127 132 133 119 116 116 117 112
81 68 33 39 78 106 105 58 152 160 147 152 161 165 170 176 170 175 179 177 176 174 167 163 163 147 145 153 170 167 170 163 170 204 203 189 184 177 168 151 147 157 145 126 112 101 105 123 121
56 61 36 265 121 124 120 216 215 159 159 165 171 173 176 185 185 185 181 179 176 168 165 172 170 154 159 164 166 158 163 160 177 187 207 224 186 173 160 158 165 151 128 128 130 124 116 110 110
43 77 238 253 189 147 146 218 203 167 168 176 181 183 183 187 192 192 185 181 177 175 170 163 156 157 167 159 146 135 137 144 177 176 187 207 176 165 161 168 167 144 129 137 160 131 138 141 140
204 213 244 240 214 152 183 229 191 178 183 187 186 188 189 194 201 193 186 181 176 177 171 161 159 160 149 129 110 98 89 69 85 182 196 192 180 162 156 151 134 129 122 119 125 127 116 130 139
171 184 237 254 209 166 207 230 207 187 192 196 193 194 197 203 204 187 182 179 171 172 173 171 167 168 151 144 146 146 177 207 249 242 214 191 181 160 145 139 131 133 136 148 149 136 116 105 119
174 206 248 301 312 168 216 258 225 196 202 201 199 199 200 200 195 190 183 182 181 182 184 182 182 176 174 174 162 157 155 163 195 295 15 186 177 164 153 145 146 144 136 135 143 137 137 142 131
213 196 212 215 29 48 79 320 239 216 210 209 208 203 200 199 198 194 189 190 187 190 192 193 190 185 181 167 130 105 81 60 50 10 338 294 170 158 154 157 156 155 161 170 171 164 162 172 166
248 223 189 172 126 291 122 276 280 223 216 218 216 209 209 205 198 194 191 192 197 198 191 189 188 186 179 163 156 159 165 183 210 206 200 79 141 162 167 164 164 165 167 173 185 171 169 159 181
209 159 151 153 143 62 19 182 286 233 233 233 220 214 211 206 198 196 196 197 199 192 186 188 186 188 181 171 172 168 179 196 193 156 137 139 56 164 169 169 171 172 175 178 175 165 161 166 178
134 74 56 50 75 303 239 178 274 232 223 233 220 213 208 201 199 199 195 188 192 186 183 184 185 193 188 180 179 181 187 186 175 177 175 190 210 279 198 169 171 177 179 180 182 174 168 174 173
104 95 42 8 9 253 242 194 249 251 235 223 216 208 203 195 194 194 190 190 192 190 189 187 188 198 192 186 189 192 194 190 191 193 191 190 204 229 229 198 183 186 194 190 179 170 178 181 175
167 141 156 191 217 268 274 230 254 269 271 242 212 197 189 188 191 194 196 195 196 195 193 190 191 196 189 190 195 193 191 191 196 194 190 197 209 221 214 197 198 197 192 194 183 181 189 178 182
137 153 157 137 147 262 274 281 299 310 327 344 155 160 182 192 194 195 195 196 196 194 195 192 191 193 191 192 191 192 191 191 194 192 192 202 210 211 200 198 205 207 202 192 170 173 186 170 180
134 141 107 125 150 233 288 278 254 272 268 266 192 188 195 194 195 196 193 194 196 195 192 187 190 196 195 190 194 201 198 198 194 187 198 205 210 205 194 203 207 208 205 185 160 164 174 164 187
112 109 115 124 152 160 233 267 230 219 224 223 219 210 201 194 195 196 193 189 187 183 184 186 190 191 192 196 196 193 194 192 190 197 205 208 209 198 195 200 198 201 199 183 169 179 176 180 200
158 160 148 153 198 175 179 259 275 217 223 215 218 210 204 193 193 189 185 177 176 180 183 187 190 195 199 195 190 193 186 178 186 199 203 196 196 199 197 192 192 197 196 184 174 179 180 189 204
Height
1491 1492 1493 1495 1497 1506 1508 1502 1497 1497 1498 1498 1498 1499 1501 1504 1507 1512 1508 1506 1506 1505 1505 1504 1503 1503 1503 1503 1504 1505 1505 1506 1506 1507 1509 1511 1513 1515 1517 1519 1521 1523 1525 1527 1529 1531 1533 1535 1537
1492 1493 1495 1496 1503 1516 1512 1500 1499 1498 1499 1499 1500 1501 1502 1505 1506 1507 1507 1507 1507 1507 1506 1506 1505 1505 1504 1505 1506 1506 1507 1507 1508 1509 1511 1513 1515 1517 1519 1521 1523 1525 1527 1529 1531 1533 1535 1537 1539
1493 1494 1496 1498 1506 1513 1508 1499 1498 1498 1499 1500 1502 1503 1505 1507 1507 1508 1508 1509 1509 1509 1508 1508 1507 1506 1505 1506 1507 1508 1508 1509 1510 1511 1513 1515 1517 1519 1522 1524 1526 1527 1529 1531 1533 1535 1537 1539 1541
1494 1496 1497 1502 1506 1502 1500 1498 1498 1499 1500 1501 1502 1505 1507 1509 1509 1510 1510 1510 1511 1511 1510 1510 1509 1508 1507 1507 1509 1509 1510 1510 1512 1513 1515 1517 1519 1521 1524 1526 1528 1529 1531 1533 1535 1537 1539 1541 1542
1495 1496 1501 1508 1505 1499 1497 1498 1499 1500 1501 1503 1503 1507 1509 1511 1511 1511 1512 1512 1513 1513 1513 1512 1512 1511 1511 1511 1512 1512 1512 1513 1514 1515 1517 1519 1522 1524 1525 1527 1529 1531 1533 1534 1536 1538 1540 1542 1544
1496 1497 1510 1514 1506 1500 1499 1499 1500 1502 1503 1504 1505 1508 1511 1512 1513 1513 1514 1514 1515 1515 1515 1515 1515 1515 1515 1515 1515 1515 1515 1516 1517 1518 1520 1522 1524 1526 1527 1529 1530 1532 1534 1536 1538 1540 1541 1543 1545
1498 1501 1509 1509 1507 1503 1501 1501 1502 1503 1504 1506 1507 1509 1512 1513 1514 1515 1515 1516 1517 1517 1517 1518 1518 1518 1519 1519 1519 1519 1519 1520 1521 1522 1523 1525 1526 1527 1528 1530 1531 1533 1535 1537 1539 1541 1543 1545 1546
1497 1502 1508 1509 1508 1505 1501 1502 1503 1504 1505 1507 1508 1509 1512 1514 1515 1516 1517 1518 1519 1519 1520 1520 1521 1521 1521 1522 1523 1523 1523 1524 1525 1525 1526 1527 1528 1529 1529 1530 1531 1534 1536 1539 1541 1543 1545 1546 1548
1498 1506 1512 1507 1505 1503 1501 1502 1504 1505 1506 1508 1508 1510 1512 1514 1515 1517 1518 1520 1521 1521 1522 1522 1523 1524 1524 1525 1526 1526 1527 1527 1528 1529 1529 1530 1531 1531 1531 1530 1531 1535 1538 1540 1542 1544 1546 1547 1549
1498 1509 1504 1498 1498 1499 1500 1502 1504 1505 1507 1509 1509 1511 1513 1515 1517 1518 1519 1521 1522 1523 1524 1524 1525 1526 1527 1527 1528 1529 1529 1530 1531 1531 1532 1533 1533 1534 1534 1534 1534 1537 1540 1542 1544 1546 1547 1549 1550
1498 1502 1498 1496 1496 1497 1500 1502 1503 1505 1508 1508 1509 1511 1514 1516 1518 1519 1521 1522 1523 1524 1525 1526 1527 1528 1529 1530 1530 1531 1532 1532 1533 1534 1534 1535 1536 1536 1537 1537 1539 1540 1542 1544 1545 1547 1548 1549 1550
1498 1497 1496 1496 1496 1499 1501 1502 1504 1505 1507 1508 1510 1511 1514 1516 1518 1520 1522 1523 1525 1526 1527 1528 1529 1530 1531 1532 1532 1533 1534 1535 1535 1536 1536 1537 1537 1538 1539 1540 1541 1542 1544 1545 1546 1548 1549 1550 1551
1497 1497 1497 1496 1497 1499 1501 1503 1505 1506 1507 1509 1512 1514 1515 1517 1519 1521 1523 1525 1526 1527 1529 1530 1531 1532 1533 1534 1534 1535 1536 1537 1537 1538 1538 1538 1539 1539 1540 1541 1542 1543 1545 1546 1548 1549 1550 1551 1552
1497 1497 1498 1498 1499 1500 1503 1505 1506 1507 1508 1511 1513 1515 1517 1518 1520 1522 1524 1525 1527 1528 1530 1531 1532 1533 1534 1535 1536 1537 1537 1538 1539 1539 1539 1539 1540 1540 1541 1542 1543 1545 1546 1547 1548 1549 1550 1551 1552
1497 1500 1501 1500 1500 1502 1504 1508 1507 1507 1509 1511 1513 1516 1517 1519 1521 1522 1524 1525 1527 1528 1530 1532 1533 1534 1535 1536 1537 1538 1538 1539 1539 1540 1540 1540 1540 1541 1542 1542 1544 1545 1547 1548 1549 1550 1550 1551 1552
1499 1506 1511 1504 1502 1503 1508 1515 1507 1507 1509 1512 1514 1516 1517 1519 1521 1523 1524 1526 1527 1529 1530 1532 1533 1534 1536 1537 1538 1538 1539 1540 1540 1540 1541 1541 1540 1541 1542 1543 1544 1545 1547 1548 1549 1550 1550 1551 1552
1509 1516 1513 1507 1502 1503 1507 1511 1506 1507 1509 1511 1514 1515 1517 1519 1521 1523 1524 1526 1528 1529 1531 1532 1534 1535 1536 1537 1538 1539 1540 1540 1541 1541 1541 1541 1541 1541 1542 1543 1544 1546 1547 1548 1549 1549 1550 1551 1552
1516 1515 1512 1510 1502 1503 1507 1508 1505 1506 1508 1510 1513 1515 1516 1517 1519 1521 1524 1526 1528 1529 1531 1532 1534 1535 1536 1537 1538 1539 1540 1541 1541 1542 1542 1542 1542 1542 1543 1544 1544 1546 1547 1548 1549 1549 1550 1551 1551
1504 1509 1512 1507 1500 1504 1507 1507 1505 1505 1508 1509 1511 1513 1514 1515 1518 1521 1523 1526 1527 1529 1530 1532 1533 1535 1536 1537 1538 1539 1540 1541 1541 1542 1542 1542 1543 1543 1543 1544 1545 1546 1547 1548 1548 1549 1550 1550 1551
1503 1509 1510 1505 1500 1503 1508 1507 1504 1504 1504 1505 1507 1509 1511 1514 1517 1520 1522 1525 1526 1528 1530 1531 1533 1534 1536 1537 1538 1539 1540 1540 1541 1542 1542 1542 1543 1543 1544 1544 1545 1546 1547 1547 1548 1549 1549 1549 1550
1502 1506 1507 1507 1503 1504 1508 1511 1506 1503 1503 1505 1506 1507 1509 1510 1513 1516 1519 1522 1525 1526 1528 1530 1532 1534 1536 1537 1538 1539 1539 1540 1540 1541 1541 1542 1543 1543 1544 1544 1545 1545 1546 1547 1547 1548 1548 1549 1549
1505 1496 1498 1503 1512 1519 1513 1528 1510 1504 1503 1502 1502 1504 1505 1507 1510 1513 1516 1520 1522 1525 1527 1529 1531 1533 1534 1536 1537 1538 1538 1539 1539 1540 1541 1542 1542 1543 1543 1544 1544 1544 1545 1546 1546 1546 1547 1548 1548
1496 1492 1497 1502 1512 1520 1518 1526 1517 1505 1505 1499 1497 1499 1501 1504 1507 1510 1513 1516 1520 1523 1525 1527 1530 1532 1533 1534 1535 1537 1537 1538 1539 1540 1540 1541 1542 1542 1543 1543 1543 1543 1544 1544 1545 1545 1546 1546 1546
1490 1497 1504 1511 1519 1532 1522 1527 1521 1507 1498 1493 1492 1494 1496 1500 1504 1507 1511 1514 1517 1520 1523 1525 1527 1529 1531 1532 1534 1535 1536 1537 1538 1539 1539 1540 1541 1541 1542 1542 1542 1542 1542 1543 1543 1544 1544 1544 1544
1492 1511 1531 1533 1541 1536 1520 1522 1515 1493 1488 1486 1486 1489 1492 1496 1500 1504 1507 1510 1514 1517 1519 1522 1525 1526 1528 1530 1531 1532 1534 1535 1536 1537 1538 1539 1539 1540 1540 1540 1541 1541 1541 1542 1542 1542 1542 1543 1543
1495 1504 1529 1541 1543 1535 1522 1521 1502 1486 1483 1482 1483 1486 1489 1493 1496 1500 1503 1506 1510 1513 1516 1519 1521 1524 1526 1527 1529 1530 1532 1533 1534 1535 1536 1537 1538 1538 1539 1539 1539 1539 1540 1540 1540 1540 1541 1541 1541
1495 1504 1505 1524 1530 1534 1527 1514 1496 1484 1482 1482 1483 1485 1487 1490 1493 1496 1500 1503 1507 1510 1513 1516 1518 1521 1523 1525 1527 1528 1530 1531 1532 1533 1534 1535 1536 1536 1537 1537 1537 1537 1537 1538 1538 1538 1539 1539 1539
1486 1496 1512 1524 1537 1539 1527 1518 1508 1490 1486 1483 1483 1483 1485 1488 1491 1494 1497 1500 1504 1507 1510 1513 1516 1518 1520 1522 1524 1526 1527 1529 1530 1531 1532 1533 1533 1534 1534 1535 1535 1535 1535 1535 1536 1536 1536 1537 1537
1492 1499 1508 1520 1523 1535 1537 1520 1488 1485 1482 1482 1481 1482 1483 1486 1488 1491 1494 1498 1501 1504 1507 1509 1512 1515 1517 1519 1521 1523 1524 1526 1527 1528 1529 1530 1531 1532 1532 1532 1532 1532 1533 1533 1533 1534 1534 1535 1535
1483 1491 1502 1514 1521 1525 1527 1514 1479 1479 1479 1479 1480 1480 1482 1484 1486 1489 1492 1495 1498 1500 1503 1506 1509 1511 1514 1516 1518 1520 1521 1523 1524 1525 1527 1528 1528 1529 1530 1530 1530 1530 1530 1531 1531 1532 1532 1533 1533